Watsonville, CA

9:44 PM PST on December 09, 2019 (GMT -0800)
Watsonville Municipal

Weather History for KWVI - August, 2019

Change the Weather History Date:

Friday, August 16, 2019

  Actual Average Record
Temperature  
Mean Temperature 64 °F 64 °F  
Max Temperature 73 °F 74 °F 91 °F (2015)
Min Temperature 54 °F 53 °F 47 °F (2000)
Degree Days  
Heating Degree Days 1    
Month to date heating degree days 7  
Since 1 June heating degree days 145  
Since 1 July heating degree days 54  
Cooling Degree Days 0    
Month to date cooling degree days 32  
Year to date cooling degree days 86  
Since 1 June cooling degree days 86  
Growing Degree Days 13 (Base 50)    
Moisture  
Dew Point 56 °F    
Average Humidity 81    
Maximum Humidity 100    
Minimum Humidity 61    
Precipitation  
Precipitation 0.00 in - 0.01 in (2013)
Month to date precipitation T  
Year to date precipitation 22.76  
Sea Level Pressure  
Sea Level Pressure 29.89 in    
Wind  
Wind Speed 5 mph (WSW)    
Max Wind Speed 14 mph    
Max Gust Speed 20 mph    
Visibility 7 miles    
Events Fog    
T = Trace of Precipitation, MM = Missing Value Source: NWS Daily Summary

Daily Weather History Graph

Daily Weather History Graph

Search for Another Location

Airport or City:

Astronomy

Aug. 16, 2019 Rise Set
Actual Time 6:24 AM PDT 7:57 PM PDT
Civil Twilight 5:57 AM PDT 8:24 PM PDT
Nautical Twilight 5:24 AM PDT 8:57 PM PDT
Astronomical Twilight 4:49 AM PDT 9:32 PM PDT
Moon 9:00 PM PDT (8/16) 7:21 AM PDT (8/16)
Length of Visible Light 14h 27m
Length of Day
13h 32m
Full, 99% of the Moon is Illuminated
Aug 16
Full
Aug 23
Last Quarter
Aug 30
New
Sep 5
First Quarter
Sep 13
Full

Hourly Weather History & Observations

Time (PDT) Temp. Dew Point Humidity Pressure Visibility Wind Dir Wind Speed Gust Speed Precip Events Conditions
12:53 AM 59.0 °F 55.9 °F 90% 29.89 in 8.0 mi Calm Calm - N/A   Clear
1:53 AM 57.0 °F 54.0 °F 89% 29.89 in 8.0 mi Calm Calm - N/A   Clear
2:53 AM 55.0 °F 52.0 °F 89% 29.88 in 8.0 mi Calm Calm - N/A   Scattered Clouds
3:04 AM 55.0 °F 53.1 °F 93% 29.88 in 4.0 mi Calm Calm - N/A   Mostly Cloudy
3:07 AM 55.0 °F 53.1 °F 93% 29.89 in 1.2 mi Calm Calm - N/A   Mostly Cloudy
3:15 AM 54.0 °F 53.1 °F 97% 29.89 in 0.2 mi Calm Calm - N/A Fog Fog
3:53 AM 57.0 °F 55.9 °F 96% 29.88 in 0.2 mi Calm Calm - N/A Fog Fog
4:53 AM 57.0 °F 55.9 °F 96% 29.89 in 0.2 mi Variable 3.5 mph - N/A Fog Fog
5:53 AM 57.9 °F 55.9 °F 93% 29.88 in 0.2 mi Calm Calm - N/A Fog Fog
6:53 AM 57.9 °F 55.9 °F 93% 29.89 in 0.2 mi Calm Calm - N/A Fog Fog
7:53 AM 57.9 °F 57.0 °F 97% 29.91 in 0.2 mi Calm Calm - N/A Fog Fog
8:42 AM 57.9 °F 57.0 °F 97% 29.91 in 0.8 mi Calm Calm - N/A   Mist
8:53 AM 59.0 °F 57.0 °F 93% 29.91 in 1.0 mi Calm Calm - N/A   Overcast
9:12 AM 60.1 °F 57.9 °F 93% 29.91 in 7.0 mi Calm Calm - N/A   Overcast
9:33 AM 64.9 °F 57.9 °F 78% 29.91 in 10.0 mi South 4.6 mph - N/A   Scattered Clouds
9:53 AM 66.0 °F 59.0 °F 78% 29.91 in 10.0 mi SSW 4.6 mph - N/A   Clear
10:53 AM 69.1 °F 57.9 °F 68% 29.92 in 10.0 mi SW 5.8 mph - N/A   Clear
11:53 AM 72.0 °F 57.0 °F 59% 29.91 in 10.0 mi SW 9.2 mph - N/A   Clear
12:53 PM 71.1 °F 57.0 °F 61% 29.91 in 10.0 mi SW 11.5 mph - N/A   Clear
1:53 PM 70.0 °F 57.0 °F 63% 29.91 in 10.0 mi WSW 10.4 mph - N/A   Clear
2:53 PM 70.0 °F 57.0 °F 63% 29.91 in 10.0 mi WSW 10.4 mph - N/A   Clear
3:53 PM 69.1 °F 57.0 °F 65% 29.89 in 10.0 mi WSW 9.2 mph - N/A   Clear
4:53 PM 68.0 °F 55.9 °F 65% 29.89 in 10.0 mi WSW 8.1 mph - N/A   Clear
5:53 PM 66.0 °F 55.9 °F 70% 29.88 in 10.0 mi WSW 10.4 mph - N/A   Clear
6:53 PM 62.1 °F 55.0 °F 78% 29.87 in 10.0 mi SW 9.2 mph - N/A   Clear
7:53 PM 59.0 °F 54.0 °F 83% 29.87 in 10.0 mi WSW 4.6 mph - N/A   Clear
8:12 PM 57.9 °F 55.0 °F 90% 29.87 in 9.0 mi West 4.6 mph - N/A   Scattered Clouds
8:53 PM 57.9 °F 55.0 °F 90% 29.87 in 9.0 mi Calm Calm - N/A   Scattered Clouds
9:00 PM 57.9 °F 55.0 °F 90% 29.87 in 9.0 mi Calm Calm - N/A   Mostly Cloudy
9:10 PM 59.0 °F 55.0 °F 87% 29.87 in 8.0 mi Calm Calm - N/A   Overcast
9:53 PM 59.0 °F 55.9 °F 90% 29.88 in 8.0 mi WSW 3.5 mph - N/A   Overcast
10:53 PM 59.0 °F 55.9 °F 90% 29.88 in 8.0 mi West 4.6 mph - N/A   Overcast
11:20 PM 59.0 °F 55.0 °F 87% 29.88 in 9.0 mi West 5.8 mph - N/A   Overcast
11:53 PM 57.9 °F 55.9 °F 93% 29.88 in 5.0 mi Variable 6.9 mph - N/A   Overcast